When you browse on this site, cookies collect data to enhance your experience and personalize the content and advertising you see.
Visit our Privacy Policy to learn more. By continuing to use the site, you agree to this use of cookies and data.
  • In Hungary
  • List of Countries
  • For 7 days
  • Water Temperature
  • Satellite Maps
  • Weather Map
  • News
  • Weather Widgets
  • user-avatar
    Login

    Hourly Weather Zacatelco

    Today, 18 February, Monday

    Time Temperature Precipitation Wind Pressure Humidity
    00:00 +14°C° 0 mm 0 mps 583 mmHg 37%
    01:00 +14°C° 0 mm 0 mps 583 mmHg 39%
    02:00 +13°C° 0 mm 0 mps 583 mmHg 41%
    03:00 +13°C° 0 mm 0 mps 583 mmHg 42%
    04:00 +13°C° 0 mm 1 mps 582 mmHg 43%
    05:00 +12°C° 0 mm 0 mps 582 mmHg 46%
    06:00 +15°C° 0 mm 1 mps 583 mmHg 43%
    07:00 +18°C° 0 mm 1 mps 584 mmHg 39%
    08:00 +19°C° 0 mm 1 mps 586 mmHg 35%
    09:00 +21°C° 0 mm 2 mps 586 mmHg 32%
    10:00 +24°C° 0 mm 3 mps 587 mmHg 29%
    11:00 +26°C° 0 mm 4 mps 588 mmHg 26%
    12:00 +26°C° 0 mm 5 mps 587 mmHg 25%
    13:00 +27°C° 0 mm 5 mps 587 mmHg 25%
    14:00 +27°C° 0 mm 6 mps 587 mmHg 25%
    15:00 +26°C° 0 mm 5 mps 586 mmHg 28%
    16:00 +23°C° 0 mm 4 mps 586 mmHg 30%
    17:00 +22°C° 0 mm 4 mps 585 mmHg 33%
    18:00 +21°C° 0.2 mm 3 mps 585 mmHg 35%
    19:00 +19°C° 0.2 mm 2 mps 585 mmHg 38%
    20:00 +19°C° 0.2 mm 1 mps 585 mmHg 40%
    21:00 +18°C° 0.1 mm 1 mps 585 mmHg 45%
    22:00 +18°C° 0.1 mm 1 mps 585 mmHg 50%
    23:00 +16°C° 0.1 mm 1 mps 584 mmHg 54%

    Tomorrow, 19 February, Tuesday

    Time Temperature Precipitation Wind Pressure Humidity
    00:00 +15°C° 0 mm 1 mps 584 mmHg 58%
    01:00 +15°C° 0 mm 1 mps 583 mmHg 63%
    02:00 +14°C° 0 mm 1 mps 583 mmHg 67%
    03:00 +14°C° 0 mm 1 mps 583 mmHg 66%
    04:00 +13°C° 0 mm 1 mps 583 mmHg 65%
    05:00 +13°C° 0 mm 1 mps 582 mmHg 64%
    06:00 +14°C° 0 mm 1 mps 583 mmHg 58%
    07:00 +16°C° 0 mm 2 mps 584 mmHg 51%
    08:00 +17°C° 0 mm 2 mps 585 mmHg 45%
    09:00 +19°C° 0 mm 4 mps 586 mmHg 38%
    10:00 +21°C° 0 mm 5 mps 586 mmHg 31%
    11:00 +23°C° 0 mm 6 mps 587 mmHg 24%
    12:00 +23°C° 0 mm 6 mps 586 mmHg 21%
    13:00 +23°C° 0 mm 6 mps 586 mmHg 19%
    14:00 +24°C° 0 mm 7 mps 585 mmHg 17%
    15:00 +23°C° 0 mm 6 mps 585 mmHg 19%
    16:00 +22°C° 0 mm 5 mps 584 mmHg 21%
    17:00 +21°C° 0 mm 4 mps 583 mmHg 23%
    18:00 +19°C° 0 mm 3 mps 583 mmHg 27%
    19:00 +18°C° 0 mm 2 mps 583 mmHg 30%
    20:00 +16°C° 0 mm 1 mps 583 mmHg 33%
    21:00 +16°C° 0 mm 1 mps 583 mmHg 36%
    22:00 +15°C° 0 mm 1 mps 583 mmHg 39%
    23:00 +14°C° 0 mm 1 mps 582 mmHg 42%

    Day after tomorrow, 20 February, Wednesday

    Time Temperature Precipitation Wind Pressure Humidity
    00:00 +14°C° 0 mm 1 mps 582 mmHg 44%
    01:00 +13°C° 0 mm 1 mps 581 mmHg 47%
    02:00 +13°C° 0 mm 1 mps 581 mmHg 49%
    03:00 +12°C° 0 mm 1 mps 581 mmHg 50%
    04:00 +12°C° 0 mm 1 mps 580 mmHg 51%
    05:00 +12°C° 0 mm 1 mps 580 mmHg 51%
    06:00 +13°C° 0 mm 1 mps 581 mmHg 47%
    07:00 +15°C° 0 mm 1 mps 582 mmHg 43%
    08:00 +16°C° 0 mm 1 mps 583 mmHg 38%
    09:00 +18°C° 0 mm 2 mps 584 mmHg 34%
    10:00 +20°C° 0 mm 3 mps 585 mmHg 29%
    11:00 +22°C° 0 mm 3 mps 585 mmHg 25%
    12:00 +23°C° 0 mm 4 mps 585 mmHg 23%
    13:00 +23°C° 0 mm 5 mps 584 mmHg 22%
    14:00 +24°C° 0 mm 6 mps 584 mmHg 20%
    15:00 +23°C° 0 mm 5 mps 583 mmHg 22%
    16:00 +22°C° 0 mm 5 mps 583 mmHg 23%
    17:00 +20°C° 0 mm 5 mps 583 mmHg 25%
    18:00 +19°C° 0 mm 4 mps 583 mmHg 29%
    19:00 +17°C° 0 mm 3 mps 583 mmHg 32%
    20:00 +16°C° 0 mm 2 mps 583 mmHg 35%
    21:00 +15°C° 0 mm 2 mps 583 mmHg 37%
    22:00 +15°C° 0 mm 2 mps 583 mmHg 39%
    23:00 +14°C° 0 mm 2 mps 583 mmHg 41%

    21 February, Thursday

    Time Temperature Precipitation Wind Pressure Humidity
    00:00 +14°C° 0 mm 2 mps 582 mmHg 41%
    01:00 +13°C° 0 mm 2 mps 581 mmHg 42%
    02:00 +13°C° 0 mm 1 mps 581 mmHg 43%
    03:00 +12°C° 0 mm 1 mps 581 mmHg 45%
    04:00 +12°C° 0 mm 1 mps 581 mmHg 46%
    05:00 +11°C° 0 mm 1 mps 581 mmHg 48%
    06:00 +13°C° 0 mm 1 mps 582 mmHg 44%
    07:00 +15°C° 0 mm 1 mps 583 mmHg 40%
    08:00 +16°C° 0 mm 2 mps 584 mmHg 36%
    09:00 +18°C° 0 mm 2 mps 585 mmHg 31%
    10:00 +20°C° 0 mm 3 mps 585 mmHg 26%
    11:00 +22°C° 0 mm 4 mps 586 mmHg 22%
    12:00 +23°C° 0 mm 4 mps 585 mmHg 20%
    13:00 +25°C° 0 mm 5 mps 585 mmHg 19%
    14:00 +25°C° 0 mm 5 mps 584 mmHg 18%
    15:00 +23°C° 0 mm 5 mps 584 mmHg 19%
    16:00 +22°C° 0 mm 5 mps 584 mmHg 21%
    17:00 +21°C° 0 mm 5 mps 583 mmHg 23%
    18:00 +19°C° 0 mm 4 mps 583 mmHg 26%
    19:00 +18°C° 0 mm 3 mps 583 mmHg 29%
    20:00 +16°C° 0 mm 1 mps 583 mmHg 33%
    21:00 +15°C° 0 mm 1 mps 583 mmHg 34%
    22:00 +15°C° 0 mm 1 mps 583 mmHg 36%
    23:00 +13°C° 0 mm 0 mps 583 mmHg 38%

    22 February, Friday

    Time Temperature Precipitation Wind Pressure Humidity
    00:00 +13°C° 0 mm 0 mps 582 mmHg 39%
    01:00 +13°C° 0 mm 0 mps 582 mmHg 40%
    02:00 +12°C° 0 mm 0 mps 581 mmHg 41%
    03:00 +12°C° 0 mm 0 mps 581 mmHg 42%
    04:00 +11°C° 0 mm 0 mps 581 mmHg 43%
    05:00 +11°C° 0 mm 0 mps 581 mmHg 44%
    06:00 +13°C° 0 mm 0 mps 583 mmHg 39%
    07:00 +15°C° 0 mm 0 mps 584 mmHg 35%
    08:00 +16°C° 0 mm 0 mps 585 mmHg 30%
    09:00 +20°C° 0 mm 1 mps 586 mmHg 26%
    10:00 +21°C° 0 mm 2 mps 587 mmHg 22%
    11:00 +24°C° 0 mm 3 mps 587 mmHg 18%
    12:00 +25°C° 0 mm 3 mps 587 mmHg 17%
    13:00 +25°C° 0 mm 3 mps 586 mmHg 17%
    14:00 +26°C° 0 mm 4 mps 586 mmHg 16%
    15:00 +25°C° 0 mm 4 mps 585 mmHg 19%
    16:00 +23°C° 0 mm 4 mps 585 mmHg 22%
    17:00 +22°C° 0 mm 4 mps 584 mmHg 25%
    18:00 +20°C° 0 mm 3 mps 584 mmHg 28%
    19:00 +19°C° 0 mm 2 mps 584 mmHg 32%
    20:00 +18°C° 0 mm 1 mps 584 mmHg 36%
    21:00 +16°C° 0 mm 1 mps 584 mmHg 38%
    22:00 +16°C° 0 mm 1 mps 584 mmHg 40%
    23:00 +14°C° 0 mm 0 mps 584 mmHg 42%

    23 February, Saturday

    Time Temperature Precipitation Wind Pressure Humidity
    00:00 +15°C° 0 mm 1 mps 583 mmHg 43%
    01:00 +14°C° 0 mm 1 mps 583 mmHg 44%
    02:00 +14°C° 0 mm 1 mps 582 mmHg 46%
    03:00 +13°C° 0 mm 1 mps 582 mmHg 47%
    04:00 +13°C° 0 mm 1 mps 583 mmHg 47%
    05:00 +11°C° 0 mm 0 mps 583 mmHg 48%
    06:00 +14°C° 0 mm 1 mps 584 mmHg 45%
    07:00 +16°C° 0 mm 1 mps 585 mmHg 41%
    08:00 +18°C° 0 mm 1 mps 586 mmHg 38%
    09:00 +20°C° 0 mm 1 mps 586 mmHg 35%
    10:00 +21°C° 0 mm 2 mps 587 mmHg 32%
    11:00 +24°C° 0 mm 2 mps 588 mmHg 29%
    12:00 +24°C° 0 mm 3 mps 587 mmHg 27%
    13:00 +25°C° 0 mm 3 mps 587 mmHg 26%
    14:00 +26°C° 0 mm 4 mps 586 mmHg 25%
    15:00 +25°C° 0 mm 4 mps 586 mmHg 26%
    16:00 +23°C° 0 mm 4 mps 586 mmHg 28%
    17:00 +22°C° 0 mm 4 mps 585 mmHg 30%
    18:00 +21°C° 0 mm 3 mps 586 mmHg 32%
    19:00 +20°C° 0 mm 2 mps 586 mmHg 34%
    20:00 +20°C° 0 mm 1 mps 586 mmHg 36%
    21:00 +19°C° 0 mm 1 mps 586 mmHg 38%
    22:00 +19°C° 0 mm 1 mps 585 mmHg 40%
    23:00 +18°C° 0 mm 1 mps 585 mmHg 43%
    Show more